Regional Weather Roundup
Issued by NWS

Home | Current Version | Previous Version | Text Only | Print | Product List | Glossary Off
Versions: 1 2 3 4 5 6 7 8 9 10 11 12 13 14 15 16 17 18 19 20 21 22 23 24 25 26 27 28 29 30 31 32 33 34 35 36 37 38 39 40 41 42 43 44 45 46 47 48 49 50

000
ASUS43 KOAX 290502
RWRNE

WEATHER ROUNDUP FOR NEBRASKA
NATIONAL WEATHER SERVICE OMAHA NE
1100 PM CST SUN DEC 28 2014

NOTES: SATELLITE DATA IS BEING USED TO AUGMENT CLOUD COVER ABOVE
       12000 FEET.
       "FAIR" INDICATES FEW OR NO CLOUDS BELOW 12,000 FEET WITH NO
       SIGNIFICANT WEATHER AND/OR OBSTRUCTIONS TO VISIBILITY.

  * THESE STATIONS DO NOT REPORT WEATHER SUCH AS RAIN...SNOW OR FOG.

NEZ001>004-019>022-054>056-290600-
NEBRASKA PANHANDLE

CITY           SKY/WX    TMP DP  RH WIND       PRES   REMARKS
SCOTTSBLUFF    CLOUDY    15  11  83 NW9       29.99R WCI   3
ALLIANCE       CLOUDY    20  19  96 NE3       29.99R
CHADRON        LGT SNOW  16  13  88 NE13      30.08R FOG     WCI   2
KIMBALL        CLOUDY    25  19  80 NW6       29.92S WCI  18
SIDNEY         MOCLDY    16  10  77 W8        29.96R WCI   5
$$

NEZ057>060-069>072-079>082-290600-
SOUTHWEST NEBRASKA

CITY           SKY/WX    TMP DP  RH WIND       PRES   REMARKS
NORTH PLATTE   CLOUDY    16  12  84 E5        30.06R WCI   9
IMPERIAL       PTCLDY     9   6  88 NW3       30.03R
LEXINGTON      MOCLDY    18  15  88 CALM      30.09R
MCCOOK         PTCLDY    17  13  84 N8        30.06R WCI   7
$$

NEZ005>010-023>029-035>040-094-290600-
NORTH CENTRAL NEBRASKA

CITY           SKY/WX    TMP DP  RH WIND       PRES   REMARKS
VALENTINE      LGT SNOW  18  14  84 E15       30.14R FOG     WCI   4
AINSWORTH      LGT SNOW  17  15  91 NE15      30.14R WCI   2
BROKEN BOW     CLOUDY    20  15  81 E7        30.10R WCI  11
ORD            CLOUDY    18  13  80 E5        30.16R WCI  11
$$

NEZ041-046>049-061>064-073>077-083>087-290600-
SOUTH CENTRAL NEBRASKA

CITY           SKY/WX    TMP DP  RH WIND       PRES   REMARKS
GRAND ISLAND   CLOUDY    19  16  88 NE6       30.16R WCI  11
HASTINGS       CLOUDY    21  17  84 NE7       30.12R WCI  12
HEBRON         CLOUDY    28  24  83 CALM      30.15R
KEARNEY *      CLOUDY    21  16  79 NE7       30.12R WCI  13
YORK           CLOUDY    23  19  86 NE7       30.16S WCI  15
$$

NEZ011>018-030>034-042>045-290600-
NORTHEAST NEBRASKA

CITY           SKY/WX    TMP DP  RH WIND       PRES   REMARKS
NORFOLK        CLOUDY    20  16  84 NE7       30.20R WCI  11
BLAIR          MOCLDY    24  21  89 N10       30.18R WCI  13
COLUMBUS *     CLOUDY    19  12  73 NE9       30.21R WCI   9
FREMONT        MOCLDY    22  19  87 N5        30.21R WCI  16
TEKAMAH        MOCLDY    21  17  84 N12       30.23R WCI   9
$$

NEZ050>053-065>068-078-088>093-290600-
SOUTHEAST NEBRASKA

CITY           SKY/WX    TMP DP  RH WIND       PRES   REMARKS
LINCOLN        MOCLDY    25  21  85 N8        30.20R WCI  16
OMAHA EPPLEY   MOCLDY    24  22  91 N7        30.22R WCI  16
FALLS CITY     CLOUDY    31  23  72 SE3       30.17S
NEBRASKA CITY  CLOUDY    29  24  81 NE5       30.17R WCI  24
$$

NEZ044-045-051>053-067-290600-
OMAHA AREA

CITY           SKY/WX    TMP DP  RH WIND       PRES   REMARKS
OMAHA EPPLEY   MOCLDY    24  22  91 N7        30.22R WCI  16
BLAIR          MOCLDY    24  21  89 N10       30.18R WCI  13
FREMONT        MOCLDY    22  19  87 N5        30.21R WCI  16
OFFUTT AFB     MOCLDY    27  23  83 N6        30.19R WCI  21
$$



USA.gov is the U.S. government's official web portal to all federal, state and local government web resources and services.